Time,TemperatureF,DewpointF,PressureIn,WindDirection,WindDirectionDegrees,WindSpeedMPH,WindSpeedGustMPH,Humidity,HourlyPrecipIn,Conditions,Clouds,dailyrainin,SoftwareType,DateUTC
2013-02-13 00:13:00,26.9,12.0,25.20,West,274,16.0,16.0,54,0.00,,,0.00,weatherlink.com 1.10,2013-02-13 07:13:00,
2013-02-13 00:28:00,27.2,13.0,25.20,West,267,10.0,13.0,56,0.00,,,0.00,weatherlink.com 1.10,2013-02-13 07:28:00,
2013-02-13 00:44:00,26.5,13.0,25.19,West,265,9.0,14.0,56,0.00,,,0.00,weatherlink.com 1.10,2013-02-13 07:44:00,
2013-02-13 00:59:00,26.3,13.0,25.19,West,281,6.0,12.0,58,0.00,,,0.00,weatherlink.com 1.10,2013-02-13 07:59:00,
2013-02-13 01:14:00,27.2,14.0,25.19,West,274,8.0,14.0,57,0.00,,,0.00,weatherlink.com 1.10,2013-02-13 08:14:00,
2013-02-13 01:29:00,26.3,14.0,25.18,West,262,8.0,14.0,60,0.00,,,0.00,weatherlink.com 1.10,2013-02-13 08:29:00,
2013-02-13 01:44:00,26.1,14.0,25.18,WNW,287,8.0,13.0,61,0.00,,,0.00,weatherlink.com 1.10,2013-02-13 08:44:00,
2013-02-13 01:59:00,25.8,14.0,25.18,West,274,5.0,12.0,61,0.00,,,0.00,weatherlink.com 1.10,2013-02-13 08:59:00,
2013-02-13 02:14:00,25.2,14.0,25.18,West,264,5.0,11.0,63,0.00,,,0.00,weatherlink.com 1.10,2013-02-13 09:14:00,
2013-02-13 02:29:00,24.3,14.0,25.17,WNW,283,8.0,11.0,65,0.00,,,0.00,weatherlink.com 1.10,2013-02-13 09:29:00,
2013-02-13 02:44:00,24.6,14.0,25.16,West,276,7.0,13.0,65,0.00,,,0.00,weatherlink.com 1.10,2013-02-13 09:44:00,
2013-02-13 02:59:00,26.8,15.0,25.16,NNW,335,13.0,18.0,61,0.00,,,0.00,weatherlink.com 1.10,2013-02-13 09:59:00,
2013-02-13 03:14:00,26.7,15.0,25.16,West,271,7.0,16.0,61,0.00,,,0.00,weatherlink.com 1.10,2013-02-13 10:14:00,
2013-02-13 03:29:00,23.8,13.0,25.16,West,274,10.0,12.0,64,0.00,,,0.00,weatherlink.com 1.10,2013-02-13 10:29:00,
2013-02-13 03:44:00,22.5,13.0,25.15,West,278,6.0,12.0,67,0.00,,,0.00,weatherlink.com 1.10,2013-02-13 10:44:00,
2013-02-13 03:59:00,22.3,12.0,25.15,West,260,10.0,14.0,64,0.00,,,0.00,weatherlink.com 1.10,2013-02-13 10:59:00,
2013-02-13 04:14:00,21.7,12.0,25.14,West,264,10.0,14.0,65,0.00,,,0.00,weatherlink.com 1.10,2013-02-13 11:14:00,
2013-02-13 04:29:00,22.2,12.0,25.14,West,273,11.0,14.0,64,0.00,,,0.00,weatherlink.com 1.10,2013-02-13 11:29:00,
2013-02-13 04:44:00,22.1,12.0,25.14,WNW,295,7.0,12.0,65,0.00,,,0.00,weatherlink.com 1.10,2013-02-13 11:44:00,
2013-02-13 04:59:00,22.3,12.0,25.13,West,274,7.0,12.0,65,0.00,,,0.00,weatherlink.com 1.10,2013-02-13 11:59:00,
2013-02-13 05:14:00,22.3,12.0,25.13,West,273,7.0,10.0,65,0.00,,,0.00,weatherlink.com 1.10,2013-02-13 12:14:00,
2013-02-13 05:29:00,22.5,13.0,25.13,West,269,7.0,11.0,66,0.00,,,0.00,weatherlink.com 1.10,2013-02-13 12:29:00,
2013-02-13 05:44:00,23.0,13.0,25.14,West,267,9.0,13.0,66,0.00,,,0.00,weatherlink.com 1.10,2013-02-13 12:44:00,
2013-02-13 05:59:00,22.5,13.0,25.14,West,276,5.0,10.0,68,0.00,,,0.00,weatherlink.com 1.10,2013-02-13 12:59:00,
2013-02-13 06:14:00,22.0,14.0,25.14,West,270,4.0,11.0,70,0.00,,,0.00,weatherlink.com 1.10,2013-02-13 13:14:00,
2013-02-13 06:29:00,21.9,14.0,25.14,WNW,282,7.0,10.0,70,0.00,,,0.00,weatherlink.com 1.10,2013-02-13 13:29:00,
2013-02-13 06:44:00,21.9,14.0,25.14,NW,307,4.0,9.0,70,0.00,,,0.00,weatherlink.com 1.10,2013-02-13 13:44:00,
2013-02-13 06:59:00,22.6,14.0,25.15,West,269,6.0,8.0,70,0.00,,,0.00,weatherlink.com 1.10,2013-02-13 13:59:00,
2013-02-13 07:14:00,24.2,14.0,25.14,WNW,288,6.0,13.0,66,0.00,,,0.00,weatherlink.com 1.10,2013-02-13 14:14:00,
2013-02-13 07:29:00,24.7,14.0,25.15,NW,316,6.0,10.0,64,0.00,,,0.00,weatherlink.com 1.10,2013-02-13 14:29:00,
2013-02-13 07:44:00,25.3,15.0,25.15,WNW,293,5.0,11.0,64,0.00,,,0.00,weatherlink.com 1.10,2013-02-13 14:44:00,
2013-02-13 07:59:00,27.0,15.0,25.15,NW,307,3.0,9.0,62,0.00,,,0.00,weatherlink.com 1.10,2013-02-13 14:59:00,
2013-02-13 08:15:00,29.5,17.0,25.15,WNW,288,6.0,11.0,60,0.00,,,0.00,weatherlink.com 1.10,2013-02-13 15:15:00,
2013-02-13 08:30:00,32.5,18.0,25.14,NW,304,5.0,11.0,55,0.00,,,0.00,weatherlink.com 1.10,2013-02-13 15:30:00,
2013-02-13 08:45:00,33.7,18.0,25.14,NW,311,8.0,13.0,53,0.00,,,0.00,weatherlink.com 1.10,2013-02-13 15:45:00,
2013-02-13 09:00:00,33.2,18.0,25.14,NW,310,14.0,16.0,54,0.00,,,0.00,weatherlink.com 1.10,2013-02-13 16:00:00,
2013-02-13 09:07:00,33.1,17.0,25.14,WNW,293,6.0,16.0,53,0.00,,,0.00,weatherlink.com 1.10,2013-02-13 16:07:00,
2013-02-13 09:19:00,34.5,17.0,25.14,NW,324,10.0,21.0,50,0.00,,,0.00,weatherlink.com 1.10,2013-02-13 16:19:00,
2013-02-13 09:34:00,36.9,18.0,25.14,WNW,302,18.0,22.0,46,0.00,,,0.00,weatherlink.com 1.10,2013-02-13 16:34:00,
2013-02-13 09:49:00,38.0,19.0,25.15,WNW,293,11.0,27.0,47,0.00,,,0.00,weatherlink.com 1.10,2013-02-13 16:49:00,
2013-02-13 10:04:00,39.0,20.0,25.15,WNW,290,15.0,26.0,46,0.00,,,0.00,weatherlink.com 1.10,2013-02-13 17:04:00,
2013-02-13 10:19:00,40.4,21.0,25.15,WNW,302,12.0,21.0,46,0.00,,,0.00,weatherlink.com 1.10,2013-02-13 17:19:00,
2013-02-13 10:34:00,40.6,21.0,25.15,WSW,252,15.0,25.0,46,0.00,,,0.00,weatherlink.com 1.10,2013-02-13 17:34:00,
2013-02-13 10:49:00,39.9,20.0,25.15,WNW,302,11.0,30.0,46,0.00,,,0.00,weatherlink.com 1.10,2013-02-13 17:49:00,
2013-02-13 11:04:00,40.1,21.0,25.15,NW,324,20.0,29.0,46,0.00,,,0.00,weatherlink.com 1.10,2013-02-13 18:04:00,
2013-02-13 11:19:00,40.8,21.0,25.15,NW,319,18.0,30.0,46,0.00,,,0.00,weatherlink.com 1.10,2013-02-13 18:19:00,
2013-02-13 11:34:00,41.3,21.0,25.14,NW,321,14.0,35.0,45,0.00,,,0.00,weatherlink.com 1.10,2013-02-13 18:34:00,
2013-02-13 11:50:00,41.7,21.0,25.14,NNW,329,31.0,36.0,43,0.00,,,0.00,weatherlink.com 1.10,2013-02-13 18:50:00,
2013-02-13 12:04:00,42.4,22.0,25.13,NW,324,15.0,34.0,44,0.00,,,0.00,weatherlink.com 1.10,2013-02-13 19:04:00,
2013-02-13 12:19:00,42.4,21.0,25.13,NW,323,32.0,36.0,43,0.00,,,0.00,weatherlink.com 1.10,2013-02-13 19:19:00,
2013-02-13 12:34:00,42.8,22.0,25.12,West,280,19.0,33.0,43,0.00,,,0.00,weatherlink.com 1.10,2013-02-13 19:34:00,
2013-02-13 13:04:00,43.3,21.0,25.12,NNW,341,24.0,32.0,42,0.00,,,0.00,weatherlink.com 1.10,2013-02-13 20:04:00,
2013-02-13 13:19:00,43.3,21.0,25.11,WNW,298,22.0,33.0,41,0.00,,,0.00,weatherlink.com 1.10,2013-02-13 20:19:00,
2013-02-13 13:34:00,43.4,22.0,25.11,WNW,289,21.0,30.0,42,0.00,,,0.00,weatherlink.com 1.10,2013-02-13 20:34:00,
2013-02-13 13:49:00,43.9,23.0,25.11,NW,324,14.0,32.0,43,0.00,,,0.00,weatherlink.com 1.10,2013-02-13 20:49:00,
2013-02-13 14:04:00,43.5,22.0,25.11,NW,324,23.0,34.0,42,0.00,,,0.00,weatherlink.com 1.10,2013-02-13 21:04:00,
2013-02-13 14:19:00,43.5,22.0,25.11,NW,311,14.0,30.0,43,0.00,,,0.00,weatherlink.com 1.10,2013-02-13 21:19:00,
2013-02-13 14:34:00,43.4,22.0,25.11,NW,313,23.0,30.0,43,0.00,,,0.00,weatherlink.com 1.10,2013-02-13 21:34:00,
2013-02-13 14:49:00,43.4,22.0,25.11,West,274,17.0,28.0,43,0.00,,,0.00,weatherlink.com 1.10,2013-02-13 21:49:00,
2013-02-13 15:04:00,43.2,22.0,25.11,North,5,18.0,31.0,44,0.00,,,0.00,weatherlink.com 1.10,2013-02-13 22:04:00,
2013-02-13 15:19:00,43.0,22.0,25.12,NNW,338,22.0,30.0,44,0.00,,,0.00,weatherlink.com 1.10,2013-02-13 22:19:00,
2013-02-13 15:34:00,42.7,22.0,25.12,NW,304,20.0,24.0,44,0.00,,,0.00,weatherlink.com 1.10,2013-02-13 22:34:00,
2013-02-13 15:49:00,42.3,22.0,25.12,NW,323,19.0,27.0,45,0.00,,,0.00,weatherlink.com 1.10,2013-02-13 22:49:00,
2013-02-13 16:04:00,41.6,22.0,25.11,NW,304,17.0,31.0,46,0.00,,,0.00,weatherlink.com 1.10,2013-02-13 23:04:00,
2013-02-13 16:19:00,41.3,22.0,25.11,North,351,17.0,28.0,47,0.00,,,0.00,weatherlink.com 1.10,2013-02-13 23:19:00,
2013-02-13 16:34:00,40.9,22.0,25.12,NW,324,24.0,27.0,47,0.00,,,0.00,weatherlink.com 1.10,2013-02-13 23:34:00,
2013-02-13 16:49:00,40.4,22.0,25.12,NW,326,6.0,25.0,48,0.00,,,0.00,weatherlink.com 1.10,2013-02-13 23:49:00,
2013-02-13 17:04:00,39.2,22.0,25.13,West,280,9.0,23.0,50,0.00,,,0.00,weatherlink.com 1.10,2013-02-14 00:04:00,
2013-02-13 17:19:00,38.5,22.0,25.13,NW,321,8.0,21.0,51,0.00,,,0.00,weatherlink.com 1.10,2013-02-14 00:19:00,
2013-02-13 17:34:00,37.7,21.0,25.13,NW,306,15.0,21.0,52,0.00,,,0.00,weatherlink.com 1.10,2013-02-14 00:34:00,
2013-02-13 17:49:00,37.3,21.0,25.12,WNW,302,11.0,28.0,53,0.00,,,0.00,weatherlink.com 1.10,2013-02-14 00:49:00,
2013-02-13 18:04:00,36.8,21.0,25.13,WNW,293,11.0,22.0,54,0.00,,,0.00,weatherlink.com 1.10,2013-02-14 01:04:00,
2013-02-13 18:19:00,36.3,21.0,25.14,NW,321,13.0,20.0,55,0.00,,,0.00,weatherlink.com 1.10,2013-02-14 01:19:00,
2013-02-13 18:35:00,36.1,22.0,25.14,NW,316,11.0,24.0,56,0.00,,,0.00,weatherlink.com 1.10,2013-02-14 01:35:00,
2013-02-13 18:50:00,35.5,22.0,25.14,WNW,298,12.0,23.0,58,0.00,,,0.00,weatherlink.com 1.10,2013-02-14 01:50:00,
2013-02-13 19:05:00,35.2,22.0,25.16,WNW,287,13.0,24.0,59,0.00,,,0.00,weatherlink.com 1.10,2013-02-14 02:05:00,
2013-02-13 19:20:00,35.5,22.0,25.17,NW,323,13.0,23.0,59,0.00,,,0.00,weatherlink.com 1.10,2013-02-14 02:20:00,
2013-02-13 19:35:00,34.8,22.0,25.18,NNW,347,10.0,24.0,61,0.00,,,0.00,weatherlink.com 1.10,2013-02-14 02:35:00,
2013-02-13 19:50:00,34.2,23.0,25.19,NNW,347,10.0,18.0,64,0.00,,,0.00,weatherlink.com 1.10,2013-02-14 02:50:00,
2013-02-13 20:05:00,33.5,24.0,25.19,NW,321,7.0,13.0,68,0.00,,,0.00,weatherlink.com 1.10,2013-02-14 03:05:00,
2013-02-13 20:20:00,33.4,28.0,25.19,NNE,31,14.0,20.0,81,0.00,,,0.00,weatherlink.com 1.10,2013-02-14 03:20:00,
2013-02-13 20:35:00,31.4,28.0,25.20,NNW,345,9.0,15.0,86,0.00,,,0.00,weatherlink.com 1.10,2013-02-14 03:35:00,
2013-02-13 20:50:00,30.5,28.0,25.21,NNW,338,4.0,10.0,89,0.00,,,0.00,weatherlink.com 1.10,2013-02-14 03:50:00,
2013-02-13 21:10:00,32.2,28.0,25.22,NW,317,14.0,18.0,83,0.00,,,0.00,weatherlink.com 1.10,2013-02-14 04:10:00,
2013-02-13 21:20:00,32.3,27.0,25.22,NNW,340,5.0,17.0,82,0.00,,,0.00,weatherlink.com 1.10,2013-02-14 04:20:00,
2013-02-13 22:05:00,32.7,27.0,25.23,NNW,340,10.0,13.0,80,0.00,,,0.00,weatherlink.com 1.10,2013-02-14 05:05:00,
2013-02-13 22:20:00,32.7,27.0,25.23,NNW,340,9.0,15.0,78,0.00,,,0.00,weatherlink.com 1.10,2013-02-14 05:20:00,
2013-02-13 22:35:00,32.5,25.0,25.23,North,351,11.0,20.0,75,0.00,,,0.00,weatherlink.com 1.10,2013-02-14 05:35:00,
2013-02-13 22:50:00,32.0,25.0,25.23,NNW,334,9.0,15.0,76,0.00,,,0.00,weatherlink.com 1.10,2013-02-14 05:50:00,
2013-02-13 23:05:00,31.6,25.0,25.23,NNW,345,10.0,13.0,78,0.00,,,0.00,weatherlink.com 1.10,2013-02-14 06:05:00,
2013-02-13 23:20:00,31.2,26.0,25.23,NW,323,10.0,12.0,80,0.00,,,0.00,weatherlink.com 1.10,2013-02-14 06:20:00,
2013-02-13 23:36:00,31.2,26.0,25.23,NW,322,7.0,13.0,80,0.00,,,0.00,weatherlink.com 1.10,2013-02-14 06:36:00,
2013-02-13 23:50:00,31.2,26.0,25.23,NNW,340,6.0,10.0,80,0.00,,,0.00,weatherlink.com 1.10,2013-02-14 06:50:00,